This demonstration page uses our WeatherBlox Daily Observations layout. Learn more.

Left ArrowRight Arrow

40.92501, -98.34201

Hourly Observations for June 4, 2020

Temp ( °F °C ) Dew Point ( °F °C ) Humidity (%) Winds ( mph kmh ) Pressure ( in mb ) Visibility ( mi km ) Precip ( " mm )
12:53 am 00:53 Clear 67 19.4 61 16.1 81 81 S 6 9 29.78 1009 10 16 0.00 0.00
1:53 am 01:53 Clear 66 18.9 62 16.7 87 87 Calm 29.75 1008 10 16 0.00 0.00
2:53 am 02:53 Clear 65 18.3 62 16.7 90 90 N 6 9 29.76 1008 10 16 0.00 0.00
3:53 am 03:53 Clear 63 17.2 60 15.6 90 90 Calm 29.77 1008 9 14 0.00 0.00
4:53 am 04:53 Clear with Mist and Fog 62 16.7 60 15.6 93 93 SW 5 7 29.77 1008 6 10 0.00 0.00
5:53 am 05:53 Clear 64 17.8 60 15.6 87 87 WSW 7 11 29.78 1009 7 11 0.00 0.00
6:53 am 06:53 Sunny 66 18.9 60 15.6 81 81 Calm 29.80 1009 10 16 0.00 0.00
7:53 am 07:53 Sunny 70 21.1 61 16.1 73 73 SW 7 11 29.80 1009 10 16 0.00 0.00
8:53 am 08:53 Sunny 72 22.2 61 16.1 68 68 S 9 15 29.82 1010 10 16 0.00 0.00
9:53 am 09:53 Sunny 75 23.9 61 16.1 62 62 S 8 13 29.82 1010 10 16 0.00 0.00
10:53 am 10:53 Sunny 79 26.1 63 17.2 58 58 SSE 12 19 29.80 1009 10 16 0.00 0.00
11:53 am 11:53 Sunny 83 28.3 63 17.2 51 51 SSE 12 19 29.78 1008 10 16 0.00 0.00
12:53 pm 12:53 Sunny 86 30 63 17.2 46 46 S 13 20 29.76 1008 10 16 0.00 0.00
1:53 pm 13:53 Sunny 88 31.1 63 17.2 43 43 SSW 12 19 29.74 1007 10 16 0.00 0.00
2:53 pm 14:53 Sunny 91 32.8 63 17.2 39 39 S 10 17 29.72 1006 10 16 0.00 0.00
3:53 pm 15:53 Sunny 93 33.9 61 16.1 34 34 S 12 19 29.70 1006 10 16 0.00 0.00
4:53 pm 16:53 Sunny 94 34.4 60 15.6 32 32 SSW 13 20 29.68 1005 10 16 0.00 0.00
5:53 pm 17:53 Sunny 94 34.4 58 14.4 30 30 SSW 9 15 29.67 1005 10 16 0.00 0.00
6:53 pm 18:53 Sunny 92 33.3 60 15.6 34 34 S 9 15 29.67 1005 10 16 0.00 0.00
7:53 pm 19:53 Sunny 90 32.2 61 16.1 38 38 S 6 9 29.66 1005 10 16 0.00 0.00
8:53 pm 20:53 Sunny 85 29.4 62 16.7 46 46 WSW 3 6 29.68 1005 10 16 0.00 0.00
9:53 pm 21:53 Mostly Clear 82 27.8 54 12.2 38 38 NW 16 26 29.75 1007 10 16 0.00 0.00
10:00 pm 22:00 Clear 82 27.8 55 12.8 40 40 NW 31 50 29.70 1006 10 16 0.00 0.00
10:11 pm 22:11 Mostly Cloudy with Light Rain 78 25.6 59 15 52 52 N 20 31 29.68 1005 10 16 0.00 0.00
10:53 pm 22:53 Clear 76 24.4 58 14.4 54 54 NNE 13 20 29.74 1007 10 16 0.00 0.00
11:53 pm 23:53 Partly Cloudy 73 22.8 59 15 62 62 NE 6 9 29.71 1006 10 16 0.00 0.00

Powered by AerisWeather